Find Starlink 36875

NORAD ID: 68300 Int'l Des: 2026-057 Owner: SPXS Country: US Constellation: starlink operational
LEOCIRCULARRETROGRADE

实时位置

正在加载3D地球...

关于 Starlink 36875

正在加载描述...

即将过境

Passes for default location (London). Set your location on the main map for personalized predictions.

高度历史

Loading altitude history...

两行轨道根数

1 68300U 26057G 26126.15357010 .00217395 00000-0 14188-2 0 9997
2 68300 97.2858 251.4947 0001481 76.4403 283.7027 15.75235949 7330
Epoch: May 6, 2026 • Age: 6 hours

当前状态

高度 368.6 km
速度 7.69 km/s
星下点 -63.02°S, 100.75°W
发射日期 Mar 20, 2026
运行时间 0.1 years
类型 internet

技术详情

分类 Payload
质量 575.00 kg
干质量 530.00 kg
总质量 575.00 kg
长度 0.30 m
直径 4.10 m
跨度 29.00 m
形状 Box + pan
制造商 SPXS
平台类型 Starlink V2MO
阶段状态 In Orbit
所有者/国家 SPXS/US

Most Searched